Weather in Mati

Philippines     6°57′48″N   126°12′57″E
temp.,
°C
wind,
m/s
gust,
m/s
humid.,
%
clouds,
%
prec.,
mm/h
press.,
hPa
HPBL,
m
14 may, fri
fri1423:00+23n119596 1.4 100842
02:00+23nw1296100 4.4 100655
05:00+23n1195100 3.6 100733
08:00+23ese2499100 11.5 1009243
11:00+24nne1193100 3.5 100971
14:00+25se0188100 3.6 1007145
17:00+23nw1294100 0.3 100864
20:00+23nw129176 0.4 101055
15 may, sat
sat1523:00+22nnw228894 0.0 101048
02:00+23nnw2183100 0.0 100843
05:00+23nnw1179100 0.0 100937
08:00+27sw116799 0.0 1010385
11:00+30se336119 0.0 10081075
14:00+28ese137676 1.9 1007577
17:00+25nne1290100 3.3 100770
20:00+23nnw229474 5.9 101052
16 may, sun
sun1623:00+22nnw229328 0.2 101041
02:00+22nnw219187 0.2 100840
05:00+22nnw228986 0.0 100840
08:00+27sse126834 0.0 1010561
11:00+30ese3557100 0.1 10081357
14:00+28e237289 1.0 1006520
17:00+25ne128861 0.9 1007107
20:00+24n119050 1.1 101057
17 may, mon
mon1723:00+23nnw228931 0.0 100950
02:00+22nnw22865 0.0 100842
05:00+22nnw218499 0.0 100938
08:00+28ssw116513 0.0 1010547
11:00+30sse325932 0.0 10081123
14:00+29ese226783 0.3 1006958
17:00+27ese238355 0.7 1007227
20:00+24n11925 1.5 100981
18 may, tue
tue1823:00+23nnw119341 1.6 100943
02:00+23nnw229395 2.4 100841
05:00+22nnw2292100 0.1 100839
08:00+27ssw017585 0.3 1009418
11:00+29sse2270100 0.9 1008845
14:00+28ese2273100 3.0 1006776
17:00+26e2385100 1.8 1007373
20:00+24ne1296100 8.8 100991